Regional Weather Roundup
Issued by NWS

Home | Current Version | Previous Version | Graphics & Text | Print | Product List | Glossary On
Versions: 1 2 3 4 5 6 7 8 9 10 11 12 13 14 15 16 17 18 19 20 21 22 23 24 25 26 27 28 29 30 31 32 33 34 35 36 37 38 39 40 41 42 43 44 45 46 47 48 49
000
ASUS45 KTFX 291010
RWRMT
MONTANA REGIONAL WEATHER ROUNDUP
NATIONAL WEATHER SERVICE GREAT FALLS MT
400 AM MDT MON JUN 29 2015

NOTE: "FAIR" INDICATES FEW OR NO CLOUDS BELOW 12000 FEET WITH NO
SIGNIFICANT WEATHER AND/OR OBSTRUCTIONS TO VISIBILITY.

MTZ001>007-043-291100-
WEST OF THE DIVIDE

CITY           SKY/WX    TMP DP  RH WIND       PRES   REMARKS
KALISPELL      CLOUDY    68  56  65 S3        29.97S
MISSOULA       PTCLDY    71  47  42 W3        30.00R
BUTTE          MOCLDY    71  45  39 CALM      30.20F
MULLAN PASS    CLOUDY    72  40  31 VRB6      30.21R
DEER LODGE       N/A     61  48  63 CALM      30.18F
EUREKA           N/A     64  52  63 CALM      29.98S
HAMILTON         N/A     68  50  52 S10       30.03R
RONAN            N/A     67  53  60 CALM      30.02S
$$

MTZ008-052>055-291100-
SOUTHWEST MONTANA

CITY           SKY/WX    TMP DP  RH WIND       PRES   REMARKS
BOZEMAN        PTCLDY    60  50  69 SE3       30.14S
DILLON         PTCLDY    63  44  50 SE8       30.18S
W YELLOWSTONE  PTCLDY    48  45  87 SW3       30.33S
THREE FORKS      N/A     59  59 100 CALM      30.11S
TWIN BRIDGES     N/A     65  46  50 SE5       30.14R
$$

MTZ009-010-012-014-046-048-049-054-291100-
EAST SLOPES AND CENTRAL MONTANA

CITY           SKY/WX    TMP DP  RH WIND       PRES   REMARKS
CUT BANK       CLEAR     61  51  70 CALM      30.12S
GREAT FALLS    CLEAR     61  45  55 W8        30.09R
MALMSTROM AFB  CLEAR     63  48  58 SW8       30.08S
HELENA         CLEAR     71  45  39 CALM      30.11S
$$

MTZ011-013-016-021-045-047-050-051-291100-
NORTH CENTRAL MONTANA

CITY           SKY/WX    TMP DP  RH WIND       PRES   REMARKS
HAVRE          CLEAR     68  51  54 E6        30.04R
CHINOOK          N/A     63  55  77 CALM      30.04R
FORT BENTON      N/A     66  46  48 CALM      30.06R
$$

MTZ017>020-022>027-061-062-291100-
NORTHEAST MONTANA

CITY           SKY/WX    TMP DP  RH WIND       PRES   REMARKS
GLASGOW        CLEAR     66  53  63 E8        29.98S
JORDAN           N/A     60  55  83 W3        30.01S
SIDNEY         CLEAR     59  52  77 CALM      29.99S
WOLF POINT     CLEAR     61  56  83 CALM      29.98S
MALTA            N/A     61  53  74 CALM      29.97R
PLENTYWOOD       N/A     70  57  64 CALM      29.99R
POPLAR           N/A     61  57  88 CALM      29.98S
SCOBEY           N/A     57  49  75 CALM      29.99F
$$

MTZ028>42-056>058-291100-
SOUTHCENTRAL AND SOUTHEAST MONTANA

CITY           SKY/WX    TMP DP  RH WIND       PRES   REMARKS
BAKER          CLEAR     64  58  80 E5        30.04S
BILLINGS       PTCLDY    69  53  56 SW14      30.09S
LIVINGSTON     PTCLDY    59  49  69 VRB3      30.17S
MILES CITY     CLEAR     70  56  61 CALM      30.00S
BIG TIMBER       N/A     64  48  55 W7        30.17S
EKALAKA          N/A     68  56  65 SE7       30.04S
FORSYTH          N/A     66  57  72 CALM      30.01S
LAUREL           N/A     61  51  69 CALM      30.08S
ROUNDUP          N/A     62  50  65 SW5       30.00S
$$

REGIONAL REPORTS...DAKOTAS

CITY           SKY/WX    TMP DP  RH WIND       PRES   REMARKS
WILLISTON      CLEAR     61  56  83 NE5       29.98S
MINOT          PTCLDY    67  56  67 SW8       29.93S
DICKINSON      PTCLDY    61  57  87 NW6       30.00S
BEACH          FAIR      57  57 100 CALM      30.04R
CROSBY         FAIR      59  59 100 S3        29.98R
BISMARCK       CLEAR     59  56  89 SW3       29.97S
GRAND FORKS    CLEAR     63  60  90 W8        29.81F
FARGO          CLEAR     63  59  87 W5        29.84S
BUFFALO SD       N/A     63  56  78 S7        29.99S
RAPID CITY     TSTM      66  58  75 NW16      30.12R
$$

REGIONAL REPORTS...WYOMING/IDAHO/WASHINGTON

CITY           SKY/WX    TMP DP  RH WIND       PRES   REMARKS
GILLETTE       CLEAR     67  54  63 W13       30.09S
SHERIDAN       CLEAR     61  50  67 CALM      30.10S
BUFFALO WY     CLEAR     67  47  48 W12       30.17S
CODY           PTCLDY    66  48  52 SW8       30.21S
YELLOWSTONE LA   N/A     47  43  86 CALM      30.45R
IDAHO FALLS    CLEAR     60  55  83 N6        30.12R
SALMON         MOCLDY    64  48  55 SW5       30.06R
BOISE          CLOUDY    86  51  29 N9        29.93F
SPOKANE        LGT RAIN  84  54  35 W18       29.93R
$$

REGIONAL REPORTS...ALBERTA

CITY           SKY/WX    TMP DP  RH WIND       PRES   REMARKS
EDMONTON       CLEAR     57  46  67 NE2       30.06R
CALGARY        MOCLDY    70  52  52 S6        30.13S
LETHBRIDGE     MOCLDY    61  59  94 W3        30.08S
MEDICINE HAT   CLEAR     64  54  68 NE5       30.06R
WATERTON GATE    N/A     54  52  94 E1          N/A
CARDSTON         N/A     57  57 100 N1          N/A
MILK RIVER       N/A     59  54  82 NW8         N/A
ONEFOUR          N/A     70  45  40 NE13        N/A
$$

REGIONAL REPORTS...SASKATCHEWAN

CITY           SKY/WX    TMP DP  RH WIND       PRES   REMARKS
SWIFT CURRENT  CLEAR     63  55  77 W12       30.03R
REGINA         PTCLDY    63  54  72 CALM      29.97S
SASKATOON      CLOUDY    61  55  82 N7        30.01R
CYPRESS HILLS    N/A     66  48  52 NE2         N/A
VAL MARIE        N/A     55  48  76 NE3         N/A
$$



USA.gov is the U.S. government's official web portal to all federal, state and local government web resources and services.